Waarnemingen

Advertentie
Mijn weer
Chievres, België (6432): temperatuur & dauwpunt: 17.05.2018 18:00:00 - 23.05.2018 18:00:00 (CEST)Chievres, België (6432): windsnelheid & windstoten: 17.05.2018 18:00:00 - 23.05.2018 18:00:00 (CEST)Chievres, België (6432): windrichting: 17.05.2018 18:00:00 - 23.05.2018 18:00:00 (CEST)Chievres, België (6432): luchtdruk: 17.05.2018 18:00:00 - 23.05.2018 18:00:00 (CEST)Chievres, België (6432): zicht: 17.05.2018 18:00:00 - 23.05.2018 18:00:00 (CEST)
Datum & Tijd tt [°C] td [°C] ff [km/u] ff [kn] fx [km/u] fx [kn] dd ppp [hPa] vv [km]
23.05.2018 18:00:00 20,5 16,9 7 4 29 16 N 1018,6 8
23.05.2018 17:00:00 22,4 15,8 11 6 - - NO 1018,3 10
23.05.2018 16:00:00 21,5 15,7 11 6 22 12 NO 1018,7 6
23.05.2018 15:00:00 20,1 15,2 11 6 22 12 NO 1019,3 6
23.05.2018 14:00:00 18,8 15,5 11 6 - - NNO 1019,7 7
23.05.2018 13:00:00 18,3 15,5 11 6 18 10 NNO 1020,0 13
23.05.2018 12:00:00 17,2 15,1 11 6 18 10 NNO 1019,8 8
23.05.2018 11:00:00 16,7 15,3 11 6 - - NNO 1019,6 5
23.05.2018 10:00:00 15,6 14,8 7 4 11 6 N 1019,6 2,5
23.05.2018 09:00:00 14,3 13,9 7 4 14 8 N 1019,2 1,9
23.05.2018 08:00:00 13,5 13,0 7 4 - - N 1019,0 1,9
23.05.2018 07:00:00 13,0 12,5 4 2 7 4 N 1018,3 1,7
23.05.2018 06:00:00 12,8 12,2 4 2 11 6 N 1017,8 2,0
23.05.2018 05:00:00 13,0 12,5 4 2 - - N 1017,3 2,1
23.05.2018 04:00:00 13,2 12,9 4 2 7 4 N 1017,1 1,4
23.05.2018 03:00:00 13,6 13,2 7 4 7 4 N 1017,0 2,7
23.05.2018 02:00:00 14,0 13,6 4 2 - - N 1016,8 3,7
23.05.2018 01:00:00 13,3 12,9 4 2 7 4 N 1016,8 4,2
23.05.2018 00:00:00 14,1 13,5 7 4 11 6 N 1016,6 5
22.05.2018 23:00:00 14,8 14,3 7 4 - - NNO 1016,2 7
22.05.2018 22:00:00 15,3 14,6 7 4 14 8 N 1015,3 9
22.05.2018 21:00:00 15,5 14,3 4 2 18 10 N 1014,7 15
22.05.2018 20:00:00 15,6 13,4 11 6 - - OZO 1014,5 18
22.05.2018 19:00:00 16,8 15,3 14 8 36 19 N 1014,7 4,5
22.05.2018 18:00:00 17,2 14,5 22 12 43 23 N 1013,5 8
22.05.2018 17:00:00 21,2 12,7 32 18 - - N 1012,6 17
22.05.2018 16:00:00 24,5 14,3 7 4 14 8 W 1012,2 18
22.05.2018 15:00:00 22,9 13,9 4 2 11 6 N 1012,7 13
22.05.2018 14:00:00 22,0 14,1 4 2 - - N 1013,1 17
22.05.2018 13:00:00 22,5 15,7 4 2 11 6 N 1013,2 13
22.05.2018 12:00:00 20,9 15,3 4 2 11 6 N 1013,2 14
22.05.2018 11:00:00 19,7 14,7 4 2 - - N 1013,2 12
22.05.2018 10:00:00 17,4 14,3 4 2 7 4 N 1013,2 9
22.05.2018 09:00:00 15,3 13,7 4 2 7 4 N 1013,0 5
22.05.2018 08:00:00 13,1 12,6 4 2 - - N 1012,7 3,0
22.05.2018 07:00:00 10,3 10,1 4 2 7 4 N 1012,6 2,8
22.05.2018 06:00:00 9,9 9,9 7 4 7 4 N 1012,1 1,1
22.05.2018 05:00:00 10,2 10,1 4 2 - - N 1012,1 0,2
22.05.2018 04:00:00 11,0 10,8 4 2 4 2 N 1012,0 0,1
22.05.2018 03:00:00 11,2 11,0 4 2 7 4 N 1012,0 2,9
22.05.2018 02:00:00 12,6 12,1 4 2 - - N 1012,0 2,8
22.05.2018 01:00:00 13,5 12,8 4 2 11 6 N 1012,2 5
22.05.2018 00:00:00 14,0 13,6 4 2 7 4 N 1012,2 7
21.05.2018 23:00:00 15,1 14,9 4 2 - - N 1012,2 7
21.05.2018 22:00:00 15,0 14,5 4 2 11 6 N 1012,2 9
21.05.2018 21:00:00 16,3 15,2 4 2 4 2 N 1012,0 13
21.05.2018 20:00:00 16,3 14,3 4 2 - - N 1011,7 17
21.05.2018 19:00:00 16,3 12,7 7 4 22 12 WZW 1012,2 20
21.05.2018 18:00:00 20,8 13,5 14 8 22 12 NO 1011,7 15
21.05.2018 17:00:00 21,6 14,5 4 2 - - N 1012,2 16
21.05.2018 16:00:00 22,1 12,1 11 6 25 14 ONO 1012,7 20
21.05.2018 15:00:00 21,7 11,1 11 6 25 14 ONO 1013,2 20
21.05.2018 14:00:00 21,0 10,5 14 8 - - ONO 1013,6 20
21.05.2018 13:00:00 20,3 10,9 14 8 22 12 NO 1014,1 20
21.05.2018 12:00:00 20,1 10,7 18 10 29 16 O 1014,5 19
21.05.2018 11:00:00 18,4 13,1 14 8 - - ONO 1015,1 15
21.05.2018 10:00:00 16,8 12,2 14 8 25 14 O 1015,6 15
21.05.2018 09:00:00 16,2 12,5 4 2 7 4 N 1016,0 14
21.05.2018 08:00:00 14,1 12,1 4 2 - - N 1016,5 15
21.05.2018 07:00:00 13,8 11,6 11 6 22 12 NO 1016,3 15
21.05.2018 06:00:00 13,3 11,3 11 6 18 10 NO 1016,7 17
21.05.2018 05:00:00 12,1 11,0 7 4 - - NNO 1017,1 13
21.05.2018 04:00:00 13,0 11,1 4 2 18 10 N 1017,3 19
21.05.2018 03:00:00 14,1 10,8 11 6 25 14 O 1017,8 20
21.05.2018 02:00:00 14,8 11,5 11 6 - - ONO 1018,6 20
21.05.2018 01:00:00 13,8 12,3 7 4 14 8 ONO 1019,2 13
21.05.2018 00:00:00 14,6 12,7 11 6 18 10 NNO 1019,2 16
20.05.2018 23:00:00 14,1 12,8 11 6 - - NNW 1019,2 13
20.05.2018 22:00:00 13,8 12,7 7 4 7 4 N 1019,6 12
20.05.2018 21:00:00 15,0 12,7 7 4 22 12 OZO 1019,3 19
20.05.2018 20:00:00 16,4 12,3 11 6 - - OZO 1019,5 20
20.05.2018 19:00:00 22,8 11,2 14 8 25 14 NO 1018,2 20
20.05.2018 18:00:00 22,2 10,1 7 4 22 12 NO 1018,5 16
20.05.2018 17:00:00 22,2 8,2 14 8 - - NO 1019,2 19
20.05.2018 16:00:00 21,5 7,9 14 8 22 12 NO 1020,2 19
20.05.2018 15:00:00 20,8 8,7 14 8 29 16 ONO 1021,0 18
20.05.2018 14:00:00 20,2 10,3 14 8 - - ONO 1021,7 15
20.05.2018 13:00:00 18,6 11,2 11 6 22 12 NO 1022,2 10
20.05.2018 12:00:00 15,8 10,6 11 6 18 10 NNO 1023,0 7
20.05.2018 11:00:00 13,5 10,3 7 4 - - N 1023,2 4,0
20.05.2018 10:00:00 11,3 9,8 11 6 14 8 ONO 1023,7 2,6
20.05.2018 09:00:00 10,0 9,6 7 4 14 8 ONO 1023,5 2,9
20.05.2018 08:00:00 8,8 8,8 11 6 - - ONO 1023,5 0,9
20.05.2018 07:00:00 8,5 8,5 11 6 22 12 NO 1023,6 0,2
20.05.2018 06:00:00 8,0 8,0 11 6 18 10 NO 1023,3 0,1
20.05.2018 05:00:00 7,8 7,8 11 6 - - NNO 1023,2 0,1
20.05.2018 04:00:00 7,1 7,1 7 4 11 6 N 1023,2 0,1
20.05.2018 03:00:00 6,3 5,9 7 4 11 6 N 1023,2 1,6
20.05.2018 02:00:00 5,6 5,2 5 3 - - NO 1023,7 0,7
20.05.2018 01:00:00 6,3 5,8 4 2 7 4 N 1024,0 1,5
20.05.2018 00:00:00 7,6 6,8 4 2 7 4 N 1024,0 3,1
19.05.2018 23:00:00 7,7 6,6 7 4 - - N 1023,8 3,8
19.05.2018 22:00:00 8,8 7,4 7 4 22 12 N 1023,5 4,3
19.05.2018 21:00:00 10,8 8,1 14 8 22 12 N 1023,1 6
19.05.2018 20:00:00 12,1 7,9 14 8 - - N 1022,8 9
19.05.2018 19:00:00 12,8 8,4 14 8 25 14 N 1022,8 9
19.05.2018 18:00:00 12,1 7,4 11 6 22 12 NNO 1023,3 12
19.05.2018 17:00:00 11,8 8,1 14 8 - - N 1023,7 9
19.05.2018 16:00:00 11,8 7,7 11 6 18 10 N 1024,2 8
19.05.2018 15:00:00 11,3 7,3 11 6 18 10 NO 1024,4 7
19.05.2018 14:00:00 11,3 7,3 11 6 - - NNO 1024,5 10
19.05.2018 13:00:00 11,1 7,1 11 6 18 10 NNO 1024,5 9
19.05.2018 12:00:00 10,7 7,0 7 4 14 8 NNO 1024,7 13
19.05.2018 11:00:00 10,3 6,3 7 4 - - NNO 1024,5 12
19.05.2018 10:00:00 9,7 5,6 11 6 18 10 NNO 1024,5 14
19.05.2018 09:00:00 9,5 5,1 11 6 18 10 NNO 1024,4 14
19.05.2018 08:00:00 7,7 6,4 4 2 - - N 1024,0 7
19.05.2018 07:00:00 4,8 3,8 4 2 4 2 N 1024,0 5
19.05.2018 06:00:00 4,0 2,8 4 2 7 4 - 1023,8 4,9
19.05.2018 05:00:00 4,3 3,1 4 2 - - N 1023,8 7
19.05.2018 04:00:00 4,6 3,3 4 2 7 4 N 1024,0 9
19.05.2018 03:00:00 5,5 3,9 7 4 7 4 NNW 1024,2 12
19.05.2018 02:00:00 6,3 4,3 4 2 - - N 1024,2 14
19.05.2018 01:00:00 6,0 4,3 7 4 11 6 N 1024,0 14
19.05.2018 00:00:00 7,1 5,0 11 6 18 10 N 1024,0 16
18.05.2018 23:00:00 8,3 5,3 11 6 - - N 1024,0 17
18.05.2018 22:00:00 9,5 5,7 11 6 25 14 N 1023,8 16
18.05.2018 21:00:00 11,6 5,4 18 10 25 14 N 1023,5 19
18.05.2018 20:00:00 13,3 6,0 14 8 - - N 1023,3 19
18.05.2018 19:00:00 14,4 6,4 18 10 29 16 N 1023,2 18
18.05.2018 18:00:00 15,8 6,0 18 10 29 16 N 1023,1 15
18.05.2018 17:00:00 16,1 5,7 14 8 - - N 1023,1 18
18.05.2018 16:00:00 16,3 6,6 14 8 29 16 NNW 1023,2 18
18.05.2018 15:00:00 15,4 6,4 14 8 32 18 N 1023,7 14
18.05.2018 14:00:00 14,4 5,6 11 6 - - NNO 1024,0 16
18.05.2018 13:00:00 14,2 5,9 11 6 25 14 NNO 1024,5 19
18.05.2018 12:00:00 12,2 5,2 11 6 25 14 N 1024,9 17
18.05.2018 11:00:00 11,1 4,8 11 6 - - N 1025,2 14
18.05.2018 10:00:00 10,6 5,2 11 6 18 10 NNO 1025,2 17
18.05.2018 09:00:00 9,4 5,4 11 6 18 10 NO 1025,2 12
18.05.2018 08:00:00 8,3 5,9 7 4 - - NNO 1025,0 12
18.05.2018 07:00:00 5,5 5,0 7 4 11 6 N 1024,9 6
18.05.2018 06:00:00 3,4 2,4 7 4 7 4 N 1024,7 4,7
18.05.2018 05:00:00 4,3 3,3 4 2 - - N 1024,7 6
18.05.2018 04:00:00 4,1 2,9 7 4 7 4 N 1024,7 7
18.05.2018 03:00:00 5,1 3,9 7 4 11 6 N 1024,9 10
18.05.2018 02:00:00 5,5 4,2 11 6 - - N 1024,9 10
18.05.2018 01:00:00 6,1 4,4 7 4 14 8 N 1025,0 11
18.05.2018 00:00:00 7,4 5,1 11 6 22 12 N 1025,2 12
17.05.2018 23:00:00 8,6 5,0 14 8 - - N 1025,2 15
17.05.2018 22:00:00 9,5 5,0 14 8 25 14 N 1024,9 16
17.05.2018 21:00:00 11,0 4,7 18 10 32 18 N 1024,4 16
17.05.2018 20:00:00 13,0 4,6 18 10 - - N 1023,8 18
17.05.2018 19:00:00 13,3 4,9 22 12 32 18 N 1023,7 17
17.05.2018 18:00:00 14,6 4,5 25 14 36 19 N 1023,7 16

tt = temperatuur
td = dauwpunt
ff = windsnelheid
fx = windstoten
dd = windrichting
ppp = luchtdruk
vv = zicht

Weerstations in de omgeving